This is the latest recevied weather packets stored in our database for station/object W0AKY-13. If no packets are shown the sender has not sent any weather packets the latest 10 day(s).
| Time | Temp. | Humidity | Pressure | Rain* | Wind** | Luminosity | Snow |
|---|---|---|---|---|---|---|---|
| 1777824521 | 20.56° C | 39% | 1013.6 hPa | 0 mm | - | 501 W/m² | - |
| 1777824217 | 20.56° C | 39% | 1013.7 hPa | 0 mm | - | 469 W/m² | - |
| 1777823913 | 20.56° C | 41% | 1013.4 hPa | 0 mm | - | 489 W/m² | - |
| 1777823611 | 20° C | 42% | 1013.5 hPa | 0 mm | - | 523 W/m² | - |
| 1777823307 | 20° C | 43% | 1013.4 hPa | 0 mm | - | 515 W/m² | - |
| 1777823005 | 19.44° C | 43% | 1013.5 hPa | 0 mm | - | 476 W/m² | - |
| 1777822703 | 19.44° C | 44% | 1013.3 hPa | 0 mm | - | 433 W/m² | - |
| 1777822401 | 19.44° C | 44% | 1013.3 hPa | 0 mm | - | 248 W/m² | - |
| 1777822098 | 19.44° C | 43% | 1013.2 hPa | 0 mm | - | 426 W/m² | - |
| 1777821796 | 18.89° C | 46% | 1013.4 hPa | 0 mm | - | 335 W/m² | - |
| 1777821493 | 18.89° C | 45% | 1013.3 hPa | 0 mm | - | 390 W/m² | - |
| 1777821190 | 18.89° C | 44% | 1013 hPa | 0 mm | - | 331 W/m² | - |
| 1777820887 | 18.33° C | 46% | 1013.2 hPa | 0 mm | - | 359 W/m² | - |
| 1777820583 | 18.33° C | 45% | 1013.3 hPa | 0 mm | - | 314 W/m² | - |
| 1777820280 | 18.33° C | 46% | 1013.4 hPa | 0 mm | - | 242 W/m² | - |
| 1777819978 | 18.33° C | 46% | 1013.2 hPa | 0 mm | - | 257 W/m² | - |
| 1777819674 | 18.33° C | 46% | 1013.3 hPa | 0 mm | - | 354 W/m² | - |
| 1777819373 | 17.78° C | 50% | 1013.1 hPa | 0 mm | - | 350 W/m² | - |
| 1777819070 | 17.22° C | 49% | 1013.1 hPa | 0 mm | - | 322 W/m² | - |
| 1777818767 | 17.22° C | 49% | 1012.7 hPa | 0 mm | - | 318 W/m² | - |
| 1777818463 | 17.22° C | 50% | 1013 hPa | 0 mm | - | 294 W/m² | - |
| 1777818160 | 16.67° C | 51% | 1012.9 hPa | 0 mm | - | 134 W/m² | - |
| 1777817856 | 16.67° C | 54% | 1012.7 hPa | 0 mm | - | 43 W/m² | - |
| 1777817554 | 16.11° C | 51% | 1012.8 hPa | 0 mm | - | 41 W/m² | - |
| 1777817250 | 16.11° C | 51% | 1012.9 hPa | 0 mm | - | 40 W/m² | - |
* Rain latest hour (hover to see other rain measurements)
** Current wind speed in m/s (hover to see current wind gust speed)